Year,Month,Day,Hour,Minute,Value (Times are PST for temperature in C)
2011,06,22,00,00,14.80
2011,06,22,00,01,14.80
2011,06,22,00,02,14.80
2011,06,22,00,03,14.80
2011,06,22,00,04,14.80
2011,06,22,00,05,14.80
2011,06,22,00,06,14.70
2011,06,22,00,07,14.70
2011,06,22,00,08,14.70
2011,06,22,00,09,14.70
2011,06,22,00,10,14.70
2011,06,22,00,11,14.60
2011,06,22,00,12,14.60
2011,06,22,00,13,14.60
2011,06,22,00,14,14.60
2011,06,22,00,15,14.60
2011,06,22,00,16,14.50
2011,06,22,00,17,14.50
2011,06,22,00,18,14.50
2011,06,22,00,19,14.40
2011,06,22,00,20,14.40
2011,06,22,00,21,14.40
2011,06,22,00,22,14.40
2011,06,22,00,23,14.40
2011,06,22,00,24,14.40
2011,06,22,00,25,14.30
2011,06,22,00,26,14.30
2011,06,22,00,27,14.30
2011,06,22,00,28,14.30
2011,06,22,00,29,14.30
2011,06,22,00,30,14.30
2011,06,22,00,31,14.30
2011,06,22,00,32,14.20
2011,06,22,00,33,14.20
2011,06,22,00,34,14.20
2011,06,22,00,35,14.20
2011,06,22,00,36,14.20
2011,06,22,00,37,14.20
2011,06,22,00,38,14.20
2011,06,22,00,39,14.10
2011,06,22,00,40,14.10
2011,06,22,00,41,14.10
2011,06,22,00,42,14.10
2011,06,22,00,43,14.10
2011,06,22,00,44,14.10
2011,06,22,00,45,14.10
2011,06,22,00,46,14.10
2011,06,22,00,47,14.00
2011,06,22,00,48,14.00
2011,06,22,00,49,14.00
2011,06,22,00,50,14.00
2011,06,22,00,51,14.00
2011,06,22,00,52,14.00
2011,06,22,00,53,13.90
2011,06,22,00,54,13.90
2011,06,22,00,55,13.90
2011,06,22,00,56,13.90
2011,06,22,00,57,13.90
2011,06,22,00,58,13.90
2011,06,22,00,59,13.90
2011,06,22,01,00,13.90
2011,06,22,01,01,13.90
2011,06,22,01,02,13.90
2011,06,22,01,03,13.90
2011,06,22,01,04,13.90
2011,06,22,01,05,13.90
2011,06,22,01,06,13.90
2011,06,22,01,07,13.90
2011,06,22,01,08,13.90
2011,06,22,01,09,13.90
2011,06,22,01,10,13.90
2011,06,22,01,11,13.90
2011,06,22,01,12,13.90
2011,06,22,01,13,13.90
2011,06,22,01,14,13.90
2011,06,22,01,15,13.90
2011,06,22,01,16,13.90
2011,06,22,01,17,13.90
2011,06,22,01,18,13.80
2011,06,22,01,19,13.90
2011,06,22,01,20,13.90
2011,06,22,01,21,13.80
2011,06,22,01,22,13.80
2011,06,22,01,23,13.80
2011,06,22,01,24,13.80
2011,06,22,01,25,13.80
2011,06,22,01,26,13.70
2011,06,22,01,27,13.70
2011,06,22,01,28,13.70
2011,06,22,01,29,13.70
2011,06,22,01,30,13.60
2011,06,22,01,31,13.60
2011,06,22,01,32,13.60
2011,06,22,01,33,13.50
2011,06,22,01,34,13.50
2011,06,22,01,35,13.40
2011,06,22,01,36,13.40
2011,06,22,01,37,13.30
2011,06,22,01,38,13.30
2011,06,22,01,39,13.30
2011,06,22,01,40,13.30
2011,06,22,01,41,13.20
2011,06,22,01,42,13.20
2011,06,22,01,43,13.20
2011,06,22,01,44,13.20
2011,06,22,01,45,13.20
2011,06,22,01,46,13.10
2011,06,22,01,47,13.10
2011,06,22,01,48,13.10
2011,06,22,01,49,13.10
2011,06,22,01,50,13.10
2011,06,22,01,51,13.10
2011,06,22,01,52,13.00
2011,06,22,01,53,13.00
2011,06,22,01,54,13.00
2011,06,22,01,55,13.00
2011,06,22,01,56,12.90
2011,06,22,01,57,12.90
2011,06,22,01,58,12.90
2011,06,22,01,59,12.90
2011,06,22,02,00,12.90
2011,06,22,02,01,12.90
2011,06,22,02,02,12.90
2011,06,22,02,03,12.90
2011,06,22,02,04,12.80
2011,06,22,02,05,12.80
2011,06,22,02,06,12.80
2011,06,22,02,07,12.80
2011,06,22,02,08,12.80
2011,06,22,02,09,12.80
2011,06,22,02,10,12.80
2011,06,22,02,11,12.80
2011,06,22,02,12,12.80
2011,06,22,02,13,12.80
2011,06,22,02,14,12.80
2011,06,22,02,15,12.80
2011,06,22,02,16,12.80
2011,06,22,02,17,12.80
2011,06,22,02,18,12.80
2011,06,22,02,19,12.80
2011,06,22,02,20,12.80
2011,06,22,02,21,12.70
2011,06,22,02,22,12.70
2011,06,22,02,23,12.70
2011,06,22,02,24,12.70
2011,06,22,02,25,12.70
2011,06,22,02,26,12.70
2011,06,22,02,27,12.70
2011,06,22,02,28,12.70
2011,06,22,02,29,12.70
2011,06,22,02,30,12.70
2011,06,22,02,31,12.60
2011,06,22,02,32,12.60
2011,06,22,02,33,12.60
2011,06,22,02,34,12.60
2011,06,22,02,35,12.60
2011,06,22,02,36,12.60
2011,06,22,02,37,12.50
2011,06,22,02,38,12.50
2011,06,22,02,39,12.50
2011,06,22,02,40,12.50
2011,06,22,02,41,12.50
2011,06,22,02,42,12.40
2011,06,22,02,43,12.40
2011,06,22,02,44,12.40
2011,06,22,02,45,12.40
2011,06,22,02,46,12.40
2011,06,22,02,47,12.40
2011,06,22,02,48,12.40
2011,06,22,02,49,12.40
2011,06,22,02,50,12.30
2011,06,22,02,51,12.30
2011,06,22,02,52,12.30
2011,06,22,02,53,12.30
2011,06,22,02,54,12.30
2011,06,22,02,55,12.30
2011,06,22,02,56,12.30
2011,06,22,02,57,12.30
2011,06,22,02,58,12.30
2011,06,22,02,59,12.30
2011,06,22,03,00,12.30
2011,06,22,03,01,12.30
2011,06,22,03,02,12.30
2011,06,22,03,06,12.30
2011,06,22,03,07,12.30
2011,06,22,03,08,12.40
2011,06,22,03,09,12.40
2011,06,22,03,10,12.40
2011,06,22,03,11,12.40
2011,06,22,03,12,12.40
2011,06,22,03,13,12.40
2011,06,22,03,14,12.50
2011,06,22,03,15,12.50
2011,06,22,03,16,12.50
2011,06,22,03,17,12.50
2011,06,22,03,18,12.50
2011,06,22,03,19,12.50
2011,06,22,03,20,12.50
2011,06,22,03,21,12.50
2011,06,22,03,22,12.50
2011,06,22,03,23,12.50
2011,06,22,03,24,12.50
2011,06,22,03,25,12.40
2011,06,22,03,26,12.40
2011,06,22,03,27,12.40
2011,06,22,03,28,12.40
2011,06,22,03,29,12.40
2011,06,22,03,30,12.30
2011,06,22,03,31,12.30
2011,06,22,03,32,12.30
2011,06,22,03,33,12.30
2011,06,22,03,34,12.40
2011,06,22,03,35,12.40
2011,06,22,03,36,12.40
2011,06,22,03,37,12.40
2011,06,22,03,38,12.40
2011,06,22,03,39,12.40
2011,06,22,03,40,12.40
2011,06,22,03,41,12.40
2011,06,22,03,42,12.40
2011,06,22,03,43,12.40
2011,06,22,03,44,12.40
2011,06,22,03,45,12.30
2011,06,22,03,46,12.30
2011,06,22,03,47,12.30
2011,06,22,03,48,12.30
2011,06,22,03,49,12.30
2011,06,22,03,50,12.30
2011,06,22,03,51,12.30
2011,06,22,03,52,12.30
2011,06,22,03,53,12.30
2011,06,22,03,54,12.30
2011,06,22,03,55,12.30
2011,06,22,03,56,12.30
2011,06,22,03,57,12.30
2011,06,22,03,58,12.30
2011,06,22,03,59,12.30
2011,06,22,04,00,12.30
2011,06,22,04,01,12.30
2011,06,22,04,02,12.30
2011,06,22,04,03,12.30
2011,06,22,04,04,12.30
2011,06,22,04,05,12.30
2011,06,22,04,06,12.20
2011,06,22,04,07,12.20
2011,06,22,04,08,12.20
2011,06,22,04,09,12.20
2011,06,22,04,10,12.20
2011,06,22,04,11,12.20
2011,06,22,04,12,12.20
2011,06,22,04,13,12.20
2011,06,22,04,14,12.10
2011,06,22,04,15,12.10
2011,06,22,04,16,12.10
2011,06,22,04,17,12.10
2011,06,22,04,18,12.10
2011,06,22,04,19,12.10
2011,06,22,04,20,12.00
2011,06,22,04,21,12.00
2011,06,22,04,22,12.00
2011,06,22,04,23,12.00
2011,06,22,04,24,12.00
2011,06,22,04,25,11.90
2011,06,22,04,26,11.90
2011,06,22,04,27,11.90
2011,06,22,04,28,11.90
2011,06,22,04,29,11.90
2011,06,22,04,30,11.90
2011,06,22,04,31,11.90
2011,06,22,04,32,11.90
2011,06,22,04,33,11.90
2011,06,22,04,34,11.80
2011,06,22,04,35,11.80
2011,06,22,04,36,11.80
2011,06,22,04,37,11.80
2011,06,22,04,38,11.80
2011,06,22,04,39,11.70
2011,06,22,04,40,11.70
2011,06,22,04,41,11.70
2011,06,22,04,42,11.70
2011,06,22,04,43,11.70
2011,06,22,04,44,11.60
2011,06,22,04,45,11.60
2011,06,22,04,46,11.60
2011,06,22,04,47,11.60
2011,06,22,04,48,11.60
2011,06,22,04,49,11.60
2011,06,22,04,50,11.60
2011,06,22,04,51,11.60
2011,06,22,04,52,11.60
2011,06,22,04,53,11.50
2011,06,22,04,54,11.60
2011,06,22,04,55,11.60
2011,06,22,04,56,11.60
2011,06,22,04,57,11.60
2011,06,22,04,58,11.60
2011,06,22,04,59,11.60
2011,06,22,05,00,11.50
2011,06,22,05,01,11.50
2011,06,22,05,02,11.50
2011,06,22,05,03,11.50
2011,06,22,05,04,11.50
2011,06,22,05,05,11.50
2011,06,22,05,06,11.40
2011,06,22,05,07,11.40
2011,06,22,05,08,11.40
2011,06,22,05,09,11.40
2011,06,22,05,10,11.40
2011,06,22,05,11,11.40
2011,06,22,05,12,11.40
2011,06,22,05,13,11.40
2011,06,22,05,14,11.40
2011,06,22,05,15,11.40
2011,06,22,05,16,11.30
2011,06,22,05,17,11.30
2011,06,22,05,18,11.30
2011,06,22,05,19,11.30
2011,06,22,05,20,11.30
2011,06,22,05,21,11.30
2011,06,22,05,22,11.30
2011,06,22,05,23,11.30
2011,06,22,05,24,11.30
2011,06,22,05,25,11.30
2011,06,22,05,26,11.30
2011,06,22,05,27,11.30
2011,06,22,05,28,11.20
2011,06,22,05,29,11.20
2011,06,22,05,30,11.20
2011,06,22,05,31,11.20
2011,06,22,05,32,11.20
2011,06,22,05,33,11.20
2011,06,22,05,34,11.20
2011,06,22,05,35,11.20
2011,06,22,05,36,11.20
2011,06,22,05,37,11.20
2011,06,22,05,38,11.20
2011,06,22,05,39,11.20
2011,06,22,05,40,11.20
2011,06,22,05,41,11.20
2011,06,22,05,42,11.20
2011,06,22,05,43,11.20
2011,06,22,05,44,11.20
2011,06,22,05,45,11.20
2011,06,22,05,46,11.20
2011,06,22,05,47,11.20
2011,06,22,05,48,11.20
2011,06,22,05,49,11.20
2011,06,22,05,50,11.20
2011,06,22,05,51,11.20
2011,06,22,05,52,11.20
2011,06,22,05,53,11.20
2011,06,22,05,54,11.20
2011,06,22,05,55,11.20
2011,06,22,05,56,11.20
2011,06,22,05,57,11.20
2011,06,22,05,58,11.20
2011,06,22,05,59,11.20
2011,06,22,06,00,11.20
2011,06,22,06,01,11.20
2011,06,22,06,02,11.20
2011,06,22,06,03,11.20
2011,06,22,06,04,11.20
2011,06,22,06,05,11.20
2011,06,22,06,06,11.20
2011,06,22,06,07,11.20
2011,06,22,06,08,11.20
2011,06,22,06,09,11.20
2011,06,22,06,10,11.20
2011,06,22,06,11,11.20
2011,06,22,06,12,11.20
2011,06,22,06,13,11.10
2011,06,22,06,14,11.10
2011,06,22,06,15,11.20
2011,06,22,06,16,11.20
2011,06,22,06,17,11.20
2011,06,22,06,18,11.20
2011,06,22,06,19,11.20
2011,06,22,06,20,11.20
2011,06,22,06,21,11.20
2011,06,22,06,22,11.10
2011,06,22,06,23,11.20
2011,06,22,06,24,11.20
2011,06,22,06,25,11.20
2011,06,22,06,26,11.20
2011,06,22,06,27,11.20
2011,06,22,06,28,11.20
2011,06,22,06,29,11.20
2011,06,22,06,30,11.20
2011,06,22,06,31,11.20
2011,06,22,06,32,11.20
2011,06,22,06,33,11.20
2011,06,22,06,34,11.20
2011,06,22,06,35,11.20
2011,06,22,06,36,11.20
2011,06,22,06,37,11.20
2011,06,22,06,38,11.20
2011,06,22,06,39,11.20
2011,06,22,06,40,11.20
2011,06,22,06,41,11.20
2011,06,22,06,42,11.20
2011,06,22,06,43,11.20
2011,06,22,06,44,11.20
2011,06,22,06,45,11.20
2011,06,22,06,46,11.20
2011,06,22,06,47,11.20
2011,06,22,06,48,11.20
2011,06,22,06,49,11.20
2011,06,22,06,50,11.20
2011,06,22,06,51,11.20
2011,06,22,06,52,11.20
2011,06,22,06,53,11.20
2011,06,22,06,54,11.20
2011,06,22,06,55,11.30
2011,06,22,06,56,11.30
2011,06,22,06,57,11.30
2011,06,22,06,58,11.30
2011,06,22,06,59,11.30
2011,06,22,07,00,11.30
2011,06,22,07,01,11.30
2011,06,22,07,02,11.30
2011,06,22,07,03,11.30
2011,06,22,07,04,11.30
2011,06,22,07,05,11.30
2011,06,22,07,06,11.30
2011,06,22,07,07,11.30
2011,06,22,07,08,11.30
2011,06,22,07,09,11.30
2011,06,22,07,10,11.30
2011,06,22,07,11,11.30
2011,06,22,07,12,11.30
2011,06,22,07,13,11.30
2011,06,22,07,14,11.30
2011,06,22,07,15,11.30
2011,06,22,07,16,11.30
2011,06,22,07,17,11.40
2011,06,22,07,18,11.40
2011,06,22,07,19,11.40
2011,06,22,07,20,11.40
2011,06,22,07,21,11.40
2011,06,22,07,22,11.40
2011,06,22,07,23,11.40
2011,06,22,07,24,11.40
2011,06,22,07,25,11.40
2011,06,22,07,26,11.50
2011,06,22,07,27,11.50
2011,06,22,07,28,11.50
2011,06,22,07,29,11.50
2011,06,22,07,30,11.50
2011,06,22,07,31,11.50
2011,06,22,07,32,11.60
2011,06,22,07,33,11.60
2011,06,22,07,34,11.60
2011,06,22,07,35,11.60
2011,06,22,07,36,11.60
2011,06,22,07,37,11.60
2011,06,22,07,38,11.70
2011,06,22,07,39,11.70
2011,06,22,07,40,11.70
2011,06,22,07,41,11.70
2011,06,22,07,42,11.70
2011,06,22,07,43,11.80
2011,06,22,07,44,11.80
2011,06,22,07,45,11.80
2011,06,22,07,46,11.80
2011,06,22,07,47,11.80
2011,06,22,07,48,11.90
2011,06,22,07,49,11.90
2011,06,22,07,50,11.90
2011,06,22,07,51,11.90
2011,06,22,07,52,11.90
2011,06,22,07,53,12.00
2011,06,22,07,54,12.00
2011,06,22,07,55,12.00
2011,06,22,07,56,12.10
2011,06,22,07,57,12.10
2011,06,22,07,58,12.10
2011,06,22,07,59,12.10
2011,06,22,08,00,12.10
2011,06,22,08,01,12.20
2011,06,22,08,02,12.20
2011,06,22,08,03,12.20
2011,06,22,08,04,12.20
2011,06,22,08,05,12.20
2011,06,22,08,06,12.30
2011,06,22,08,07,12.30
2011,06,22,08,08,12.30
2011,06,22,08,09,12.30
2011,06,22,08,10,12.30
2011,06,22,08,11,12.40
2011,06,22,08,12,12.40
2011,06,22,08,13,12.40
2011,06,22,08,14,12.50
2011,06,22,08,15,12.50
2011,06,22,08,16,12.60
2011,06,22,08,17,12.60
2011,06,22,08,18,12.60
2011,06,22,08,19,12.60
2011,06,22,08,20,12.70
2011,06,22,08,21,12.70
2011,06,22,08,22,12.70
2011,06,22,08,23,12.80
2011,06,22,08,24,12.80
2011,06,22,08,25,12.80
2011,06,22,08,26,12.90
2011,06,22,08,27,12.90
2011,06,22,08,28,12.90
2011,06,22,08,29,13.00
2011,06,22,08,30,13.00
2011,06,22,08,31,13.00
2011,06,22,08,32,13.10
2011,06,22,08,33,13.10
2011,06,22,08,34,13.20
2011,06,22,08,35,13.20
2011,06,22,08,36,13.20
2011,06,22,08,37,13.20
2011,06,22,08,38,13.30
2011,06,22,08,39,13.30
2011,06,22,08,40,13.40
2011,06,22,08,41,13.40
2011,06,22,08,42,13.40
2011,06,22,08,43,13.50
2011,06,22,08,44,13.50
2011,06,22,08,45,13.60
2011,06,22,08,46,13.60
2011,06,22,08,47,13.60
2011,06,22,08,48,13.70
2011,06,22,08,49,13.70
2011,06,22,08,50,13.70
2011,06,22,08,51,13.80
2011,06,22,08,52,13.80
2011,06,22,08,53,13.90
2011,06,22,08,54,13.90
2011,06,22,08,55,14.00
2011,06,22,08,56,14.00
2011,06,22,08,57,14.10
2011,06,22,08,58,14.10
2011,06,22,08,59,14.20
2011,06,22,09,00,14.20
2011,06,22,09,01,14.30
2011,06,22,09,02,14.30
2011,06,22,09,03,14.30
2011,06,22,09,04,14.40
2011,06,22,09,05,14.40
2011,06,22,09,06,14.50
2011,06,22,09,07,14.50
2011,06,22,09,08,14.60
2011,06,22,09,09,14.60
2011,06,22,09,10,14.70
2011,06,22,09,11,14.70
2011,06,22,09,12,14.70
2011,06,22,09,13,14.80
2011,06,22,09,14,14.80
2011,06,22,09,15,14.90
2011,06,22,09,16,15.00
2011,06,22,09,17,15.00
2011,06,22,09,18,15.00
2011,06,22,09,19,15.00
2011,06,22,09,20,15.00
2011,06,22,09,21,15.00
2011,06,22,09,22,15.10
2011,06,22,09,23,15.20
2011,06,22,09,24,15.20
2011,06,22,09,25,15.30
2011,06,22,09,26,15.30
2011,06,22,09,27,15.30
2011,06,22,09,28,15.40
2011,06,22,09,29,15.40
2011,06,22,09,30,15.50
2011,06,22,09,31,15.50
2011,06,22,09,32,15.60
2011,06,22,09,33,15.60
2011,06,22,09,34,15.70
2011,06,22,09,35,15.70
2011,06,22,09,36,15.70
2011,06,22,09,37,15.80
2011,06,22,09,38,15.80
2011,06,22,09,39,15.90
2011,06,22,09,40,15.90
2011,06,22,09,41,15.90
2011,06,22,09,42,16.00
2011,06,22,09,43,16.00
2011,06,22,09,44,16.10
2011,06,22,09,45,16.10
2011,06,22,09,46,16.20
2011,06,22,09,47,16.20
2011,06,22,09,48,16.20
2011,06,22,09,49,16.30
2011,06,22,09,50,16.30
2011,06,22,09,51,16.40
2011,06,22,09,52,16.40
2011,06,22,09,53,16.40
2011,06,22,09,54,16.50
2011,06,22,09,55,16.60
2011,06,22,09,56,16.60
2011,06,22,09,57,16.70
2011,06,22,09,58,16.70
2011,06,22,09,59,16.80
2011,06,22,10,00,16.80
2011,06,22,10,01,16.90
2011,06,22,10,02,17.00
2011,06,22,10,03,17.10
2011,06,22,10,04,17.20
2011,06,22,10,05,17.20
2011,06,22,10,06,17.30
2011,06,22,10,07,17.30
2011,06,22,10,08,17.40
2011,06,22,10,09,17.40
2011,06,22,10,10,17.40
2011,06,22,10,11,17.50
2011,06,22,10,12,17.50
2011,06,22,10,13,17.50
2011,06,22,10,14,17.50
2011,06,22,10,15,17.60
2011,06,22,10,16,17.60
2011,06,22,10,17,17.60
2011,06,22,10,18,17.60
2011,06,22,10,19,17.70
2011,06,22,10,20,17.70
2011,06,22,10,21,17.70
2011,06,22,10,22,17.70
2011,06,22,10,23,17.70
2011,06,22,10,24,17.70
2011,06,22,10,25,17.80
2011,06,22,10,26,17.80
2011,06,22,10,27,17.80
2011,06,22,10,28,17.80
2011,06,22,10,29,17.90
2011,06,22,10,30,17.90
2011,06,22,10,31,18.00
2011,06,22,10,32,18.00
2011,06,22,10,33,18.10
2011,06,22,10,34,18.20
2011,06,22,10,35,18.40
2011,06,22,10,36,18.40
2011,06,22,10,37,18.50
2011,06,22,10,38,18.60
2011,06,22,10,39,18.70
2011,06,22,10,40,18.70
2011,06,22,10,41,18.80
2011,06,22,10,42,18.90
2011,06,22,10,43,18.90
2011,06,22,10,44,19.00
2011,06,22,10,45,19.10
2011,06,22,10,46,19.20
2011,06,22,10,47,19.30
2011,06,22,10,48,19.40
2011,06,22,10,49,19.50
2011,06,22,10,50,19.70
2011,06,22,10,51,19.80
2011,06,22,10,52,19.90
2011,06,22,10,53,20.00
2011,06,22,10,54,20.10
2011,06,22,10,55,20.20
2011,06,22,10,56,20.30
2011,06,22,10,57,20.30
2011,06,22,10,58,20.40
2011,06,22,10,59,20.40
2011,06,22,11,00,20.40
2011,06,22,11,01,20.50
2011,06,22,11,02,20.50
2011,06,22,11,03,20.60
2011,06,22,11,04,20.60
2011,06,22,11,05,20.60
2011,06,22,11,06,20.60
2011,06,22,11,07,20.70
2011,06,22,11,08,20.70
2011,06,22,11,09,20.80
2011,06,22,11,10,20.80
2011,06,22,11,11,20.90
2011,06,22,11,12,20.90
2011,06,22,11,13,20.90
2011,06,22,11,14,20.90
2011,06,22,11,15,20.90
2011,06,22,11,16,20.90
2011,06,22,11,17,20.90
2011,06,22,11,18,20.80
2011,06,22,11,19,20.80
2011,06,22,11,20,20.80
2011,06,22,11,21,20.70
2011,06,22,11,22,20.60
2011,06,22,11,23,20.60
2011,06,22,11,24,20.50
2011,06,22,11,25,20.50
2011,06,22,11,26,20.40
2011,06,22,11,27,20.40
2011,06,22,11,28,20.30
2011,06,22,11,29,20.30
2011,06,22,11,30,20.30
2011,06,22,11,31,20.20
2011,06,22,11,32,20.20
2011,06,22,11,33,20.10
2011,06,22,11,34,20.10
2011,06,22,11,35,20.10
2011,06,22,11,36,20.10
2011,06,22,11,37,20.10
2011,06,22,11,38,20.10
2011,06,22,11,39,20.10
2011,06,22,11,40,20.10
2011,06,22,11,41,20.20
2011,06,22,11,42,20.30
2011,06,22,11,43,20.40
2011,06,22,11,44,20.50
2011,06,22,11,45,20.60
2011,06,22,11,46,20.80
2011,06,22,11,47,21.00
2011,06,22,11,48,21.10
2011,06,22,11,49,21.20
2011,06,22,11,50,21.20
2011,06,22,11,51,21.30
2011,06,22,11,52,21.40
2011,06,22,11,53,21.50
2011,06,22,11,54,21.60
2011,06,22,11,55,21.60
2011,06,22,11,56,21.70
2011,06,22,11,57,21.70
2011,06,22,11,58,21.60
2011,06,22,11,59,21.60
2011,06,22,12,00,21.60
2011,06,22,12,01,21.50
2011,06,22,12,02,21.50
2011,06,22,12,03,21.50
2011,06,22,12,04,21.40
2011,06,22,12,05,21.40
2011,06,22,12,06,21.40
2011,06,22,12,07,21.40
2011,06,22,12,08,21.40
2011,06,22,12,09,21.40
2011,06,22,12,10,21.40
2011,06,22,12,11,21.30
2011,06,22,12,12,21.30
2011,06,22,12,13,21.30
2011,06,22,12,14,21.20
2011,06,22,12,15,21.20
2011,06,22,12,16,21.20
2011,06,22,12,17,21.10
2011,06,22,12,18,21.10
2011,06,22,12,19,21.10
2011,06,22,12,20,21.10
2011,06,22,12,21,21.10
2011,06,22,12,22,21.00
2011,06,22,12,23,21.00
2011,06,22,12,24,21.00
2011,06,22,12,25,20.90
2011,06,22,12,26,20.90
2011,06,22,12,27,20.90
2011,06,22,12,28,20.90
2011,06,22,12,29,20.90
2011,06,22,12,30,21.00
2011,06,22,12,31,21.10
2011,06,22,12,32,21.20
2011,06,22,12,33,21.20
2011,06,22,12,34,21.30
2011,06,22,12,35,21.50
2011,06,22,12,36,21.60
2011,06,22,12,37,21.70
2011,06,22,12,38,21.80
2011,06,22,12,39,22.00
2011,06,22,12,40,22.20
2011,06,22,12,41,22.30
2011,06,22,12,42,22.50
2011,06,22,12,43,22.60
2011,06,22,12,44,22.70
2011,06,22,12,45,22.70
2011,06,22,12,46,22.80
2011,06,22,12,47,22.80
2011,06,22,12,48,22.80
2011,06,22,12,49,22.80
2011,06,22,12,50,22.90
2011,06,22,12,51,22.90
2011,06,22,12,52,22.90
2011,06,22,12,53,23.00
2011,06,22,12,54,23.00
2011,06,22,12,55,23.10
2011,06,22,12,56,23.20
2011,06,22,12,57,23.30
2011,06,22,12,58,23.30
2011,06,22,12,59,23.40
2011,06,22,13,00,23.40
2011,06,22,13,01,23.40
2011,06,22,13,02,23.40
2011,06,22,13,03,23.40
2011,06,22,13,04,23.40
2011,06,22,13,05,23.40
2011,06,22,13,06,23.30
2011,06,22,13,07,23.30
2011,06,22,13,08,23.20
2011,06,22,13,09,23.20
2011,06,22,13,10,23.10
2011,06,22,13,11,23.10
2011,06,22,13,12,23.00
2011,06,22,13,13,22.90
2011,06,22,13,14,22.90
2011,06,22,13,15,22.90
2011,06,22,13,16,22.90
2011,06,22,13,17,22.90
2011,06,22,13,18,22.80
2011,06,22,13,19,22.80
2011,06,22,13,20,22.80
2011,06,22,13,21,22.70
2011,06,22,13,22,22.70
2011,06,22,13,23,22.70
2011,06,22,13,24,22.60
2011,06,22,13,25,22.60
2011,06,22,13,26,22.60
2011,06,22,13,27,22.60
2011,06,22,13,28,22.60
2011,06,22,13,29,22.50
2011,06,22,13,30,22.50
2011,06,22,13,31,22.50
2011,06,22,13,32,22.50
2011,06,22,13,33,22.50
2011,06,22,13,34,22.50
2011,06,22,13,35,22.50
2011,06,22,13,36,22.60
2011,06,22,13,37,22.70
2011,06,22,13,38,22.80
2011,06,22,13,39,22.80
2011,06,22,13,40,22.90
2011,06,22,13,41,23.00
2011,06,22,13,42,23.10
2011,06,22,13,43,23.30
2011,06,22,13,44,23.40
2011,06,22,13,45,23.50
2011,06,22,13,46,23.60
2011,06,22,13,47,23.80
2011,06,22,13,48,23.90
2011,06,22,13,49,24.00
2011,06,22,13,50,24.00
2011,06,22,13,51,24.10
2011,06,22,13,52,24.10
2011,06,22,13,53,24.10
2011,06,22,13,54,24.30
2011,06,22,13,55,24.40
2011,06,22,13,56,24.40
2011,06,22,13,57,24.40
2011,06,22,13,58,24.40
2011,06,22,13,59,24.50
2011,06,22,14,00,24.50
2011,06,22,14,01,24.60
2011,06,22,14,02,24.70
2011,06,22,14,03,24.60
2011,06,22,14,04,24.60
2011,06,22,14,05,24.60
2011,06,22,14,06,24.60
2011,06,22,14,07,24.60
2011,06,22,14,08,24.60
2011,06,22,14,09,24.70
2011,06,22,14,10,24.70
2011,06,22,14,11,24.60
2011,06,22,14,12,24.50
2011,06,22,14,13,24.50
2011,06,22,14,14,24.60
2011,06,22,14,15,24.70
2011,06,22,14,16,24.60
2011,06,22,14,17,24.50
2011,06,22,14,18,24.40
2011,06,22,14,19,24.40
2011,06,22,14,20,24.50
2011,06,22,14,21,24.60
2011,06,22,14,22,24.60
2011,06,22,14,23,24.80
2011,06,22,14,24,24.80
2011,06,22,14,25,24.70
2011,06,22,14,26,24.70
2011,06,22,14,27,24.60
2011,06,22,14,28,24.40
2011,06,22,14,29,24.30
2011,06,22,14,30,24.20
2011,06,22,14,31,24.20
2011,06,22,14,32,24.20
2011,06,22,14,33,24.20
2011,06,22,14,34,24.20
2011,06,22,14,35,24.30
2011,06,22,14,36,24.30
2011,06,22,14,37,24.40
2011,06,22,14,38,24.40
2011,06,22,14,39,24.50
2011,06,22,14,40,24.60
2011,06,22,14,41,24.60
2011,06,22,14,42,24.60
2011,06,22,14,43,24.50
2011,06,22,14,44,24.50
2011,06,22,14,45,24.60
2011,06,22,14,46,24.70
2011,06,22,14,47,24.70
2011,06,22,14,48,24.70
2011,06,22,14,49,24.80
2011,06,22,14,50,24.90
2011,06,22,14,51,24.80
2011,06,22,14,52,24.60
2011,06,22,14,53,24.50
2011,06,22,14,54,24.30
2011,06,22,14,55,24.30
2011,06,22,14,56,24.20
2011,06,22,14,57,24.30
2011,06,22,14,58,24.30
2011,06,22,14,59,24.20
2011,06,22,15,00,24.10
2011,06,22,15,01,24.10
2011,06,22,15,02,24.10
2011,06,22,15,03,24.10
2011,06,22,15,04,24.10
2011,06,22,15,05,24.10
2011,06,22,15,06,24.10
2011,06,22,15,07,24.20
2011,06,22,15,08,24.30
2011,06,22,15,09,24.40
2011,06,22,15,10,24.40
2011,06,22,15,11,24.40
2011,06,22,15,12,24.40
2011,06,22,15,13,24.30
2011,06,22,15,14,24.30
2011,06,22,15,15,24.20
2011,06,22,15,16,24.10
2011,06,22,15,17,24.00
2011,06,22,15,18,23.90
2011,06,22,15,19,23.90
2011,06,22,15,20,23.90
2011,06,22,15,21,23.80
2011,06,22,15,22,23.80
2011,06,22,15,23,23.70
2011,06,22,15,24,23.70
2011,06,22,15,25,23.70
2011,06,22,15,26,23.70
2011,06,22,15,27,23.70
2011,06,22,15,28,23.80
2011,06,22,15,29,23.80
2011,06,22,15,30,23.90
2011,06,22,15,31,23.90
2011,06,22,15,32,24.00
2011,06,22,15,33,24.00
2011,06,22,15,34,24.10
2011,06,22,15,35,24.10
2011,06,22,15,36,24.10
2011,06,22,15,37,24.00
2011,06,22,15,38,24.00
2011,06,22,15,39,24.00
2011,06,22,15,40,23.90
2011,06,22,15,41,23.80
2011,06,22,15,42,23.70
2011,06,22,15,43,23.70
2011,06,22,15,44,23.70
2011,06,22,15,45,23.70
2011,06,22,15,46,23.70
2011,06,22,15,47,23.80
2011,06,22,15,48,23.90
2011,06,22,15,49,23.90
2011,06,22,15,50,24.00
2011,06,22,15,51,24.10
2011,06,22,15,52,24.20
2011,06,22,15,53,24.20
2011,06,22,15,54,24.20
2011,06,22,15,55,24.20
2011,06,22,15,56,24.20
2011,06,22,15,57,24.10
2011,06,22,15,58,24.00
2011,06,22,15,59,23.90
2011,06,22,16,00,23.90
2011,06,22,16,01,23.80
2011,06,22,16,02,23.80
2011,06,22,16,03,23.80
2011,06,22,16,04,23.80
2011,06,22,16,05,23.70
2011,06,22,16,06,23.60
2011,06,22,16,07,23.60
2011,06,22,16,08,23.60
2011,06,22,16,09,23.70
2011,06,22,16,10,23.70
2011,06,22,16,11,23.80
2011,06,22,16,12,23.80
2011,06,22,16,13,23.80
2011,06,22,16,14,23.80
2011,06,22,16,15,23.80
2011,06,22,16,16,23.80
2011,06,22,16,17,23.70
2011,06,22,16,18,23.60
2011,06,22,16,19,23.50
2011,06,22,16,20,23.40
2011,06,22,16,21,23.40
2011,06,22,16,22,23.30
2011,06,22,16,23,23.20
2011,06,22,16,24,23.00
2011,06,22,16,25,22.80
2011,06,22,16,26,22.60
2011,06,22,16,27,22.40
2011,06,22,16,28,22.30
2011,06,22,16,29,22.20
2011,06,22,16,30,22.10
2011,06,22,16,31,22.10
2011,06,22,16,32,22.10
2011,06,22,16,33,22.00
2011,06,22,16,34,21.90
2011,06,22,16,35,21.80
2011,06,22,16,36,21.80
2011,06,22,16,37,21.70
2011,06,22,16,38,21.70
2011,06,22,16,39,21.70
2011,06,22,16,40,21.80
2011,06,22,16,41,21.80
2011,06,22,16,42,21.80
2011,06,22,16,43,21.90
2011,06,22,16,44,22.00
2011,06,22,16,45,22.10
2011,06,22,16,46,22.10
2011,06,22,16,47,22.10
2011,06,22,16,48,22.10
2011,06,22,16,49,22.00
2011,06,22,16,50,22.00
2011,06,22,16,51,21.90
2011,06,22,16,52,22.00
2011,06,22,16,53,21.90
2011,06,22,16,54,21.80
2011,06,22,16,55,21.80
2011,06,22,16,56,21.90
2011,06,22,16,57,21.90
2011,06,22,16,58,21.80
2011,06,22,16,59,21.80
2011,06,22,17,00,21.90
2011,06,22,17,01,21.90
2011,06,22,17,02,21.90
2011,06,22,17,03,21.90
2011,06,22,17,04,21.90
2011,06,22,17,05,21.80
2011,06,22,17,06,21.80
2011,06,22,17,07,21.80
2011,06,22,17,08,21.80
2011,06,22,17,09,21.80
2011,06,22,17,10,21.90
2011,06,22,17,11,22.00
2011,06,22,17,12,22.00
2011,06,22,17,13,22.00
2011,06,22,17,14,22.00
2011,06,22,17,15,21.90
2011,06,22,17,16,21.90
2011,06,22,17,17,21.90
2011,06,22,17,18,21.90
2011,06,22,17,19,21.90
2011,06,22,17,20,21.80
2011,06,22,17,21,21.80
2011,06,22,17,22,21.80